Time,TemperatureF,DewpointF,PressureIn,WindDirection,WindDirectionDegrees,WindSpeedMPH,WindSpeedGustMPH,Humidity,HourlyPrecipIn,Conditions,Clouds,dailyrainin,SoftwareType,DateUTC
2013-06-02 00:01:00,62.7,-23.0,29.65,ENE,67,1.0,10.0,0,0.00,,,0.00,Rainwise IP-100,2013-06-02 04:01:00,
2013-06-02 00:06:00,62.6,-23.0,29.65,ENE,67,4.0,7.0,0,0.00,,,0.00,Rainwise IP-100,2013-06-02 04:06:00,
2013-06-02 00:11:00,62.5,-23.0,29.65,ENE,67,2.0,9.0,0,0.00,,,0.00,Rainwise IP-100,2013-06-02 04:11:00,
2013-06-02 00:16:00,62.4,-23.0,29.65,ENE,67,2.0,9.0,0,0.00,,,0.00,Rainwise IP-100,2013-06-02 04:16:00,
2013-06-02 00:21:00,62.4,-23.0,29.65,ENE,67,1.0,7.0,0,0.00,,,0.00,Rainwise IP-100,2013-06-02 04:21:00,
2013-06-02 00:26:00,62.4,-23.0,29.65,ENE,67,1.0,7.0,0,0.00,,,0.00,Rainwise IP-100,2013-06-02 04:26:00,
2013-06-02 00:31:00,62.3,-23.0,29.65,ENE,67,2.0,11.0,0,0.00,,,0.00,Rainwise IP-100,2013-06-02 04:31:00,
2013-06-02 00:36:00,62.2,-23.0,29.65,ENE,67,7.0,12.0,0,0.00,,,0.00,Rainwise IP-100,2013-06-02 04:36:00,
2013-06-02 00:41:00,62.2,-23.0,29.65,ENE,67,6.0,10.0,0,0.00,,,0.00,Rainwise IP-100,2013-06-02 04:41:00,
2013-06-02 00:46:00,62.3,-23.0,29.65,ENE,67,1.0,7.0,0,0.00,,,0.00,Rainwise IP-100,2013-06-02 04:46:00,
2013-06-02 00:51:00,62.2,-23.0,29.64,ENE,67,2.0,10.0,0,0.00,,,0.00,Rainwise IP-100,2013-06-02 04:51:00,
2013-06-02 00:56:00,62.2,-23.0,29.64,ENE,67,7.0,8.0,0,0.00,,,0.00,Rainwise IP-100,2013-06-02 04:56:00,
2013-06-02 01:01:00,62.1,-23.0,29.64,ENE,67,2.0,10.0,0,0.00,,,0.00,Rainwise IP-100,2013-06-02 05:01:00,
2013-06-02 01:06:00,62.0,-23.0,29.64,ENE,67,2.0,7.0,0,0.00,,,0.00,Rainwise IP-100,2013-06-02 05:06:00,
2013-06-02 01:11:00,61.9,-23.0,29.64,ENE,67,2.0,7.0,0,0.00,,,0.00,Rainwise IP-100,2013-06-02 05:11:00,
2013-06-02 01:16:00,61.9,-23.0,29.64,ENE,67,2.0,11.0,0,0.00,,,0.00,Rainwise IP-100,2013-06-02 05:16:00,
2013-06-02 01:21:00,61.8,-23.0,29.64,ENE,67,4.0,8.0,0,0.00,,,0.00,Rainwise IP-100,2013-06-02 05:21:00,
2013-06-02 01:26:00,61.7,-23.0,29.64,NE,45,7.0,9.0,0,0.00,,,0.00,Rainwise IP-100,2013-06-02 05:26:00,
2013-06-02 01:31:00,61.5,-23.0,29.64,ENE,67,3.0,11.0,0,0.00,,,0.00,Rainwise IP-100,2013-06-02 05:31:00,
2013-06-02 01:36:00,61.3,-23.0,29.64,ENE,67,2.0,10.0,0,0.00,,,0.00,Rainwise IP-100,2013-06-02 05:36:00,
2013-06-02 01:41:00,61.1,-23.0,29.64,ENE,67,4.0,10.0,0,0.00,,,0.00,Rainwise IP-100,2013-06-02 05:41:00,
2013-06-02 01:46:00,60.9,-23.0,29.64,ENE,67,4.0,10.0,0,0.00,,,0.00,Rainwise IP-100,2013-06-02 05:46:00,
2013-06-02 01:51:00,60.9,-23.0,29.64,ENE,67,2.0,8.0,0,0.00,,,0.00,Rainwise IP-100,2013-06-02 05:51:00,
2013-06-02 01:56:00,60.9,-23.0,29.63,ENE,67,3.0,11.0,0,0.00,,,0.00,Rainwise IP-100,2013-06-02 05:56:00,
2013-06-02 02:01:00,60.7,-23.0,29.63,ENE,67,2.0,9.0,0,0.00,,,0.00,Rainwise IP-100,2013-06-02 06:01:00,
2013-06-02 02:06:00,60.6,-23.0,29.63,ENE,67,3.0,9.0,0,0.00,,,0.00,Rainwise IP-100,2013-06-02 06:06:00,
2013-06-02 02:11:00,60.7,-23.0,29.62,ENE,67,4.0,9.0,0,0.00,,,0.00,Rainwise IP-100,2013-06-02 06:11:00,
2013-06-02 02:16:00,60.6,-23.0,29.62,ENE,67,6.0,11.0,0,0.00,,,0.00,Rainwise IP-100,2013-06-02 06:16:00,
2013-06-02 02:21:00,60.6,-23.0,29.62,ENE,67,9.0,10.0,0,0.00,,,0.00,Rainwise IP-100,2013-06-02 06:21:00,
2013-06-02 02:26:00,60.5,-23.0,29.62,ENE,67,6.0,9.0,0,0.00,,,0.00,Rainwise IP-100,2013-06-02 06:26:00,
2013-06-02 02:31:00,60.4,-23.0,29.62,NNE,22,8.0,9.0,0,0.00,,,0.00,Rainwise IP-100,2013-06-02 06:31:00,
2013-06-02 02:36:00,60.3,-23.0,29.62,ENE,67,2.0,9.0,0,0.00,,,0.00,Rainwise IP-100,2013-06-02 06:36:00,
2013-06-02 02:41:00,60.2,-23.0,29.62,ENE,67,5.0,9.0,0,0.00,,,0.00,Rainwise IP-100,2013-06-02 06:41:00,
2013-06-02 02:46:00,60.2,-23.0,29.62,ENE,67,1.0,9.0,0,0.00,,,0.00,Rainwise IP-100,2013-06-02 06:46:00,
2013-06-02 02:51:00,60.2,-23.0,29.61,ENE,67,4.0,8.0,0,0.00,,,0.00,Rainwise IP-100,2013-06-02 06:51:00,
2013-06-02 02:56:00,60.1,-23.0,29.61,ENE,67,3.0,10.0,0,0.00,,,0.00,Rainwise IP-100,2013-06-02 06:56:00,
2013-06-02 03:01:00,60.0,-23.0,29.62,ENE,67,3.0,9.0,0,0.00,,,0.00,Rainwise IP-100,2013-06-02 07:01:00,
2013-06-02 03:06:00,59.9,-23.0,29.61,ENE,67,5.0,9.0,0,0.00,,,0.00,Rainwise IP-100,2013-06-02 07:06:00,
2013-06-02 03:11:00,59.9,-23.0,29.61,ENE,67,4.0,11.0,0,0.00,,,0.00,Rainwise IP-100,2013-06-02 07:11:00,
2013-06-02 03:16:00,59.9,-23.0,29.61,ENE,67,4.0,7.0,0,0.00,,,0.00,Rainwise IP-100,2013-06-02 07:16:00,
2013-06-02 03:21:00,59.8,-23.0,29.61,ENE,67,0.0,9.0,0,0.00,,,0.00,Rainwise IP-100,2013-06-02 07:21:00,
2013-06-02 03:26:00,59.7,-23.0,29.61,ENE,67,5.0,10.0,0,0.00,,,0.00,Rainwise IP-100,2013-06-02 07:26:00,
2013-06-02 03:31:00,59.6,-23.0,29.61,ENE,67,1.0,9.0,0,0.00,,,0.00,Rainwise IP-100,2013-06-02 07:31:00,
2013-06-02 03:36:00,59.5,-23.0,29.61,ENE,67,2.0,8.0,0,0.00,,,0.00,Rainwise IP-100,2013-06-02 07:36:00,
2013-06-02 03:41:00,59.4,-23.0,29.61,ENE,67,2.0,7.0,0,0.00,,,0.00,Rainwise IP-100,2013-06-02 07:41:00,
2013-06-02 03:46:00,59.3,-23.0,29.61,ENE,67,4.0,8.0,0,0.00,,,0.00,Rainwise IP-100,2013-06-02 07:46:00,
2013-06-02 03:51:00,59.3,-23.0,29.60,ENE,67,4.0,8.0,0,0.00,,,0.00,Rainwise IP-100,2013-06-02 07:51:00,
2013-06-02 03:56:00,59.3,-23.0,29.62,ENE,67,2.0,8.0,0,0.00,,,0.00,Rainwise IP-100,2013-06-02 07:56:00,
2013-06-02 04:01:00,59.3,-23.0,29.62,ENE,67,1.0,5.0,0,0.00,,,0.00,Rainwise IP-100,2013-06-02 08:01:00,
2013-06-02 04:06:00,59.2,-23.0,29.61,ENE,67,1.0,10.0,0,0.00,,,0.00,Rainwise IP-100,2013-06-02 08:06:00,
2013-06-02 04:11:00,59.1,-23.0,29.61,ENE,67,1.0,8.0,0,0.00,,,0.00,Rainwise IP-100,2013-06-02 08:11:00,
2013-06-02 04:16:00,59.1,-23.0,29.60,ENE,67,6.0,8.0,0,0.00,,,0.00,Rainwise IP-100,2013-06-02 08:16:00,
2013-06-02 04:21:00,59.1,-23.0,29.61,ENE,67,2.0,7.0,0,0.00,,,0.00,Rainwise IP-100,2013-06-02 08:21:00,
2013-06-02 04:26:00,59.0,-23.0,29.62,ENE,67,4.0,6.0,0,0.00,,,0.00,Rainwise IP-100,2013-06-02 08:26:00,
2013-06-02 04:31:00,58.9,-23.0,29.61,ENE,67,0.0,7.0,0,0.00,,,0.00,Rainwise IP-100,2013-06-02 08:31:00,
2013-06-02 04:36:00,58.9,-23.0,29.61,ENE,67,2.0,6.0,0,0.00,,,0.00,Rainwise IP-100,2013-06-02 08:36:00,
2013-06-02 04:41:00,58.9,-23.0,29.61,ENE,67,2.0,5.0,0,0.00,,,0.00,Rainwise IP-100,2013-06-02 08:41:00,
2013-06-02 04:46:00,58.9,-23.0,29.61,ENE,67,2.0,7.0,0,0.00,,,0.00,Rainwise IP-100,2013-06-02 08:46:00,
2013-06-02 04:51:00,58.9,-23.0,29.61,ENE,67,2.0,6.0,0,0.00,,,0.00,Rainwise IP-100,2013-06-02 08:51:00,
2013-06-02 04:56:00,58.9,-23.0,29.61,ENE,67,1.0,7.0,0,0.00,,,0.00,Rainwise IP-100,2013-06-02 08:56:00,
2013-06-02 05:01:00,58.9,-23.0,29.61,ENE,67,4.0,7.0,0,0.00,,,0.00,Rainwise IP-100,2013-06-02 09:01:00,
2013-06-02 05:06:00,58.9,-23.0,29.61,ENE,67,4.0,8.0,0,0.00,,,0.00,Rainwise IP-100,2013-06-02 09:06:00,
2013-06-02 05:11:00,59.1,-23.0,29.61,ENE,67,2.0,6.0,0,0.00,,,0.00,Rainwise IP-100,2013-06-02 09:11:00,
2013-06-02 05:16:00,59.2,-23.0,29.61,ENE,67,2.0,6.0,0,0.00,,,0.00,Rainwise IP-100,2013-06-02 09:16:00,
2013-06-02 05:21:00,59.2,-23.0,29.61,ENE,67,2.0,8.0,0,0.00,,,0.00,Rainwise IP-100,2013-06-02 09:21:00,
2013-06-02 05:26:00,59.3,-23.0,29.61,ENE,67,2.0,8.0,0,0.00,,,0.00,Rainwise IP-100,2013-06-02 09:26:00,
2013-06-02 05:31:00,59.3,-23.0,29.61,ENE,67,8.0,9.0,0,0.00,,,0.00,Rainwise IP-100,2013-06-02 09:31:00,
2013-06-02 05:36:00,59.2,-23.0,29.61,ENE,67,2.0,9.0,0,0.00,,,0.00,Rainwise IP-100,2013-06-02 09:36:00,
2013-06-02 05:41:00,59.3,-23.0,29.61,ENE,67,2.0,7.0,0,0.00,,,0.00,Rainwise IP-100,2013-06-02 09:41:00,
2013-06-02 05:46:00,59.3,-23.0,29.62,ENE,67,1.0,8.0,0,0.00,,,0.00,Rainwise IP-100,2013-06-02 09:46:00,
2013-06-02 05:51:00,59.3,-23.0,29.62,ENE,67,2.0,6.0,0,0.00,,,0.00,Rainwise IP-100,2013-06-02 09:51:00,
2013-06-02 05:56:00,59.4,-23.0,29.62,ENE,67,4.0,8.0,0,0.00,,,0.00,Rainwise IP-100,2013-06-02 09:56:00,
2013-06-02 06:01:00,59.5,-23.0,29.62,ENE,67,3.0,9.0,0,0.00,,,0.00,Rainwise IP-100,2013-06-02 10:01:00,
2013-06-02 06:06:00,59.5,-23.0,29.62,ENE,67,2.0,11.0,0,0.00,,,0.00,Rainwise IP-100,2013-06-02 10:06:00,
2013-06-02 06:11:00,59.6,-23.0,29.63,ENE,67,5.0,9.0,0,0.00,,,0.00,Rainwise IP-100,2013-06-02 10:11:00,
2013-06-02 06:16:00,59.6,-23.0,29.63,ENE,67,2.0,7.0,0,0.00,,,0.00,Rainwise IP-100,2013-06-02 10:16:00,
2013-06-02 06:21:00,59.7,-23.0,29.62,ENE,67,2.0,9.0,0,0.00,,,0.00,Rainwise IP-100,2013-06-02 10:21:00,
2013-06-02 06:26:00,59.9,-23.0,29.62,ENE,67,3.0,8.0,0,0.00,,,0.00,Rainwise IP-100,2013-06-02 10:26:00,
2013-06-02 06:31:00,60.1,-23.0,29.63,ENE,67,4.0,12.0,0,0.00,,,0.00,Rainwise IP-100,2013-06-02 10:31:00,
2013-06-02 06:36:00,60.3,-23.0,29.63,NE,45,2.0,10.0,0,0.00,,,0.00,Rainwise IP-100,2013-06-02 10:36:00,
2013-06-02 06:41:00,60.5,-23.0,29.63,ENE,67,1.0,12.0,0,0.00,,,0.00,Rainwise IP-100,2013-06-02 10:41:00,
2013-06-02 06:46:00,60.8,-23.0,29.64,ENE,67,3.0,9.0,0,0.00,,,0.00,Rainwise IP-100,2013-06-02 10:46:00,
2013-06-02 06:51:00,60.9,-23.0,29.64,ENE,67,4.0,9.0,0,0.00,,,0.00,Rainwise IP-100,2013-06-02 10:51:00,
2013-06-02 06:56:00,61.1,-23.0,29.64,ENE,67,7.0,11.0,0,0.00,,,0.00,Rainwise IP-100,2013-06-02 10:56:00,
2013-06-02 07:01:00,61.3,-23.0,29.64,ENE,67,2.0,9.0,0,0.00,,,0.00,Rainwise IP-100,2013-06-02 11:01:00,
2013-06-02 07:06:00,61.3,-23.0,29.64,ENE,67,2.0,12.0,0,0.00,,,0.00,Rainwise IP-100,2013-06-02 11:06:00,
2013-06-02 07:11:00,61.3,-23.0,29.64,ENE,67,8.0,11.0,0,0.00,,,0.00,Rainwise IP-100,2013-06-02 11:11:00,
2013-06-02 07:16:00,61.3,-23.0,29.64,ENE,67,2.0,9.0,0,0.00,,,0.00,Rainwise IP-100,2013-06-02 11:16:00,
2013-06-02 07:21:00,61.1,-23.0,29.65,ENE,67,1.0,12.0,0,0.00,,,0.00,Rainwise IP-100,2013-06-02 11:21:00,
2013-06-02 07:26:00,61.0,-23.0,29.65,ENE,67,3.0,10.0,0,0.00,,,0.00,Rainwise IP-100,2013-06-02 11:26:00,
2013-06-02 07:31:00,61.1,-23.0,29.65,ENE,67,6.0,11.0,0,0.00,,,0.00,Rainwise IP-100,2013-06-02 11:31:00,
2013-06-02 07:36:00,61.3,-23.0,29.65,ENE,67,3.0,10.0,0,0.00,,,0.00,Rainwise IP-100,2013-06-02 11:36:00,
2013-06-02 07:41:00,61.7,-23.0,29.65,ENE,67,2.0,9.0,0,0.00,,,0.00,Rainwise IP-100,2013-06-02 11:41:00,
2013-06-02 07:46:00,61.9,-23.0,29.65,ENE,67,2.0,10.0,0,0.00,,,0.00,Rainwise IP-100,2013-06-02 11:46:00,
2013-06-02 07:51:00,62.1,-23.0,29.65,ENE,67,2.0,11.0,0,0.00,,,0.00,Rainwise IP-100,2013-06-02 11:51:00,
2013-06-02 07:56:00,62.8,-23.0,29.65,ENE,67,1.0,11.0,0,0.00,,,0.00,Rainwise IP-100,2013-06-02 11:56:00,
2013-06-02 08:01:00,63.6,-23.0,29.66,ENE,67,6.0,9.0,0,0.00,,,0.00,Rainwise IP-100,2013-06-02 12:01:00,
2013-06-02 08:06:00,63.6,-23.0,29.66,ENE,67,2.0,11.0,0,0.00,,,0.00,Rainwise IP-100,2013-06-02 12:06:00,
2013-06-02 08:11:00,63.9,-23.0,29.66,ENE,67,2.0,8.0,0,0.00,,,0.00,Rainwise IP-100,2013-06-02 12:11:00,
2013-06-02 08:16:00,64.6,-23.0,29.66,ENE,67,3.0,7.0,0,0.00,,,0.00,Rainwise IP-100,2013-06-02 12:16:00,
2013-06-02 08:21:00,65.1,-23.0,29.66,ENE,67,2.0,8.0,0,0.00,,,0.00,Rainwise IP-100,2013-06-02 12:21:00,
2013-06-02 08:26:00,65.8,-23.0,29.67,ENE,67,2.0,8.0,0,0.00,,,0.00,Rainwise IP-100,2013-06-02 12:26:00,
2013-06-02 08:31:00,66.4,4.0,29.67,ENE,67,1.0,11.0,8,0.00,,,0.00,Rainwise IP-100,2013-06-02 12:31:00,
2013-06-02 08:36:00,65.9,-23.0,29.67,ENE,67,7.0,7.0,0,0.00,,,0.00,Rainwise IP-100,2013-06-02 12:36:00,
2013-06-02 08:41:00,65.5,-23.0,29.67,ENE,67,1.0,8.0,0,0.00,,,0.00,Rainwise IP-100,2013-06-02 12:41:00,
2013-06-02 08:46:00,65.5,-23.0,29.67,ENE,67,4.0,7.0,0,0.00,,,0.00,Rainwise IP-100,2013-06-02 12:46:00,
2013-06-02 08:51:00,65.7,-23.0,29.67,ENE,67,1.0,4.0,0,0.00,,,0.00,Rainwise IP-100,2013-06-02 12:51:00,
2013-06-02 08:56:00,65.7,-23.0,29.67,ENE,67,4.0,8.0,0,0.00,,,0.00,Rainwise IP-100,2013-06-02 12:56:00,
2013-06-02 09:01:00,66.3,-23.0,29.67,NNE,22,3.0,7.0,2,0.00,,,0.00,Rainwise IP-100,2013-06-02 13:01:00,
2013-06-02 09:06:00,66.8,4.0,29.67,NNE,22,2.0,9.0,8,0.00,,,0.00,Rainwise IP-100,2013-06-02 13:06:00,
2013-06-02 09:11:00,66.7,18.0,29.68,ENE,67,2.0,12.0,15,0.00,,,0.00,Rainwise IP-100,2013-06-02 13:11:00,
2013-06-02 09:16:00,66.9,24.0,29.68,ENE,67,2.0,11.0,19,0.00,,,0.00,Rainwise IP-100,2013-06-02 13:16:00,
2013-06-02 09:21:00,66.5,8.0,29.68,NNE,22,7.0,13.0,9,0.00,,,0.00,Rainwise IP-100,2013-06-02 13:21:00,
2013-06-02 09:26:00,66.8,14.0,29.68,ENE,67,5.0,9.0,12,0.00,,,0.00,Rainwise IP-100,2013-06-02 13:26:00,
2013-06-02 09:31:00,66.9,8.0,29.68,ENE,67,2.0,11.0,9,0.00,,,0.00,Rainwise IP-100,2013-06-02 13:31:00,
2013-06-02 09:36:00,67.0,11.0,29.67,ENE,67,2.0,11.0,11,0.00,,,0.00,Rainwise IP-100,2013-06-02 13:36:00,
2013-06-02 09:41:00,66.9,11.0,29.68,ENE,67,4.0,11.0,10,0.00,,,0.00,Rainwise IP-100,2013-06-02 13:41:00,
2013-06-02 09:46:00,67.8,18.0,29.68,ENE,67,2.0,9.0,14,0.00,,,0.00,Rainwise IP-100,2013-06-02 13:46:00,
2013-06-02 09:51:00,68.5,29.0,29.68,ENE,67,3.0,7.0,23,0.00,,,0.00,Rainwise IP-100,2013-06-02 13:51:00,
2013-06-02 09:56:00,68.8,31.0,29.68,ENE,67,2.0,7.0,24,0.00,,,0.00,Rainwise IP-100,2013-06-02 13:56:00,
2013-06-02 10:01:00,69.3,26.0,29.68,ENE,67,2.0,6.0,20,0.00,,,0.00,Rainwise IP-100,2013-06-02 14:01:00,
2013-06-02 10:06:00,69.9,37.0,29.68,SE,135,3.0,6.0,30,0.00,,,0.00,Rainwise IP-100,2013-06-02 14:06:00,
2013-06-02 10:11:00,69.5,40.0,29.68,SSE,157,2.0,8.0,34,0.00,,,0.00,Rainwise IP-100,2013-06-02 14:11:00,
2013-06-02 10:16:00,68.4,33.0,29.68,ENE,67,2.0,9.0,27,0.00,,,0.00,Rainwise IP-100,2013-06-02 14:16:00,
2013-06-02 10:21:00,67.8,26.0,29.68,ENE,67,7.0,11.0,20,0.00,,,0.00,Rainwise IP-100,2013-06-02 14:21:00,
2013-06-02 10:26:00,67.8,23.0,29.68,ENE,67,2.0,11.0,18,0.00,,,0.00,Rainwise IP-100,2013-06-02 14:26:00,
2013-06-02 10:31:00,68.9,32.0,29.68,NE,45,2.0,9.0,26,0.00,,,0.00,Rainwise IP-100,2013-06-02 14:31:00,
2013-06-02 10:36:00,69.8,36.0,29.68,ENE,67,2.0,9.0,29,0.00,,,0.00,Rainwise IP-100,2013-06-02 14:36:00,
2013-06-02 10:41:00,70.4,43.0,29.68,SE,135,1.0,8.0,37,0.00,,,0.00,Rainwise IP-100,2013-06-02 14:41:00,
2013-06-02 10:46:00,70.4,39.0,29.68,SSE,157,4.0,10.0,32,0.00,,,0.00,Rainwise IP-100,2013-06-02 14:46:00,
2013-06-02 10:51:00,71.1,45.0,29.68,SSE,157,6.0,6.0,40,0.00,,,0.00,Rainwise IP-100,2013-06-02 14:51:00,
2013-06-02 10:56:00,71.6,46.0,29.68,ESE,112,4.0,8.0,40,0.00,,,0.00,Rainwise IP-100,2013-06-02 14:56:00,
2013-06-02 11:01:00,71.7,48.0,29.68,ESE,112,1.0,8.0,43,0.00,,,0.00,Rainwise IP-100,2013-06-02 15:01:00,
2013-06-02 11:06:00,72.2,49.0,29.68,ESE,112,2.0,8.0,44,0.00,,,0.00,Rainwise IP-100,2013-06-02 15:06:00,
2013-06-02 11:11:00,72.5,47.0,29.68,SSW,202,2.0,7.0,40,0.00,,,0.00,Rainwise IP-100,2013-06-02 15:11:00,
2013-06-02 11:16:00,73.4,54.0,29.68,WSW,247,2.0,7.0,51,0.00,,,0.00,Rainwise IP-100,2013-06-02 15:16:00,
2013-06-02 11:21:00,72.5,53.5,29.68,South,180,2.0,11.0,50,0.00,,,0.00,Rainwise IP-100,2013-06-02 15:21:00,
2013-06-02 11:26:00,72.5,51.0,29.69,SE,135,12.0,12.0,47,0.00,,,0.00,Rainwise IP-100,2013-06-02 15:26:00,
2013-06-02 11:31:00,70.2,39.0,29.68,SE,135,7.0,12.0,33,0.00,,,0.00,Rainwise IP-100,2013-06-02 15:31:00,
2013-06-02 11:36:00,71.1,45.0,29.68,SSW,202,2.0,8.0,39,0.00,,,0.00,Rainwise IP-100,2013-06-02 15:36:00,
2013-06-02 11:41:00,71.1,43.0,29.68,SE,135,2.0,10.0,37,0.00,,,0.00,Rainwise IP-100,2013-06-02 15:41:00,
2013-06-02 11:46:00,71.4,47.0,29.68,SSW,202,2.0,9.0,41,0.00,,,0.00,Rainwise IP-100,2013-06-02 15:46:00,
2013-06-02 11:51:00,70.8,47.5,29.69,South,180,6.0,12.0,43,0.00,,,0.00,Rainwise IP-100,2013-06-02 15:51:00,
2013-06-02 11:56:00,69.7,37.0,29.68,South,180,2.0,12.0,30,0.00,,,0.00,Rainwise IP-100,2013-06-02 15:56:00,
2013-06-02 12:01:00,69.9,36.0,29.68,WSW,247,3.0,12.0,29,0.00,,,0.00,Rainwise IP-100,2013-06-02 16:01:00,
2013-06-02 12:06:00,70.7,38.0,29.68,South,180,1.0,10.0,30,0.00,,,0.00,Rainwise IP-100,2013-06-02 16:06:00,
2013-06-02 12:11:00,70.3,43.0,29.68,ENE,67,1.0,11.0,37,0.00,,,0.00,Rainwise IP-100,2013-06-02 16:11:00,
2013-06-02 12:16:00,70.2,42.0,29.68,SSW,202,2.0,9.0,36,0.00,,,0.00,Rainwise IP-100,2013-06-02 16:16:00,
2013-06-02 12:21:00,69.9,36.0,29.68,NE,45,2.0,14.0,28,0.00,,,0.00,Rainwise IP-100,2013-06-02 16:21:00,
2013-06-02 12:26:00,69.8,35.0,29.68,ENE,67,11.0,12.0,28,0.00,,,0.00,Rainwise IP-100,2013-06-02 16:26:00,
2013-06-02 12:31:00,70.2,35.0,29.67,South,180,3.0,12.0,27,0.00,,,0.00,Rainwise IP-100,2013-06-02 16:31:00,
2013-06-02 12:36:00,70.2,33.0,29.67,SSW,202,4.0,14.0,25,0.00,,,0.00,Rainwise IP-100,2013-06-02 16:36:00,
2013-06-02 12:41:00,70.2,33.0,29.67,NNE,22,3.0,16.0,25,0.00,,,0.00,Rainwise IP-100,2013-06-02 16:41:00,
2013-06-02 12:46:00,69.7,28.0,29.67,ENE,67,3.0,16.0,20,0.00,,,0.00,Rainwise IP-100,2013-06-02 16:46:00,
2013-06-02 12:51:00,70.4,36.0,29.67,ENE,67,3.0,11.0,28,0.00,,,0.00,Rainwise IP-100,2013-06-02 16:51:00,
2013-06-02 12:56:00,70.3,37.0,29.67,NNE,22,1.0,12.0,29,0.00,,,0.00,Rainwise IP-100,2013-06-02 16:56:00,
2013-06-02 13:01:00,70.9,41.0,29.67,SW,225,4.0,11.0,34,0.00,,,0.00,Rainwise IP-100,2013-06-02 17:01:00,
2013-06-02 13:06:00,70.9,43.0,29.66,SSW,202,2.0,12.0,37,0.00,,,0.00,Rainwise IP-100,2013-06-02 17:06:00,
2013-06-02 13:11:00,70.2,39.0,29.67,SSW,202,9.0,12.0,33,0.00,,,0.00,Rainwise IP-100,2013-06-02 17:11:00,
2013-06-02 13:16:00,70.7,37.0,29.66,NNE,22,5.0,11.0,29,0.00,,,0.00,Rainwise IP-100,2013-06-02 17:16:00,
2013-06-02 13:21:00,71.1,42.0,29.66,SSE,157,4.0,13.0,35,0.00,,,0.00,Rainwise IP-100,2013-06-02 17:21:00,
2013-06-02 13:26:00,70.8,41.0,29.66,SSW,202,3.0,11.0,34,0.00,,,0.00,Rainwise IP-100,2013-06-02 17:26:00,
2013-06-02 13:31:00,71.3,41.0,29.66,ESE,112,6.0,9.0,34,0.00,,,0.00,Rainwise IP-100,2013-06-02 17:31:00,
2013-06-02 13:36:00,71.4,47.0,29.66,SSW,202,2.0,13.0,41,0.00,,,0.00,Rainwise IP-100,2013-06-02 17:36:00,
2013-06-02 13:41:00,71.9,45.0,29.66,SSW,202,2.0,9.0,38,0.00,,,0.00,Rainwise IP-100,2013-06-02 17:41:00,
2013-06-02 13:46:00,72.2,52.0,29.66,WNW,292,6.0,11.0,49,0.00,,,0.00,Rainwise IP-100,2013-06-02 17:46:00,
2013-06-02 13:51:00,72.6,49.0,29.66,WSW,247,2.0,10.0,43,0.00,,,0.00,Rainwise IP-100,2013-06-02 17:51:00,
2013-06-02 13:56:00,71.9,50.0,29.66,SW,225,2.0,12.0,45,0.00,,,0.00,Rainwise IP-100,2013-06-02 17:56:00,
2013-06-02 14:01:00,71.9,54.5,29.66,SW,225,8.0,12.0,54,0.00,,,0.00,Rainwise IP-100,2013-06-02 18:01:00,
2013-06-02 14:06:00,71.2,49.0,29.66,South,180,3.0,12.0,45,0.00,,,0.00,Rainwise IP-100,2013-06-02 18:06:00,
2013-06-02 14:11:00,70.5,47.0,29.66,SW,225,5.0,12.0,43,0.00,,,0.00,Rainwise IP-100,2013-06-02 18:11:00,
2013-06-02 14:16:00,70.8,48.0,29.67,South,180,2.0,11.0,45,0.00,,,0.00,Rainwise IP-100,2013-06-02 18:16:00,
2013-06-02 14:21:00,70.7,50.0,29.67,WSW,247,1.0,10.0,48,0.00,,,0.00,Rainwise IP-100,2013-06-02 18:21:00,
2013-06-02 14:26:00,70.2,50.0,29.66,SSW,202,4.0,9.0,49,0.00,,,0.00,Rainwise IP-100,2013-06-02 18:26:00,
2013-06-02 14:31:00,70.8,50.5,29.67,West,270,3.0,7.0,49,0.00,,,0.00,Rainwise IP-100,2013-06-02 18:31:00,
2013-06-02 14:36:00,70.6,51.0,29.66,WSW,247,2.0,11.0,50,0.00,,,0.00,Rainwise IP-100,2013-06-02 18:36:00,
2013-06-02 14:41:00,69.9,47.5,29.66,SSW,202,3.0,12.0,45,0.00,,,0.00,Rainwise IP-100,2013-06-02 18:41:00,
2013-06-02 14:46:00,70.0,46.0,29.66,SSW,202,3.0,8.0,42,0.00,,,0.00,Rainwise IP-100,2013-06-02 18:46:00,
2013-06-02 14:51:00,70.4,49.0,29.66,NNE,22,4.0,7.0,47,0.00,,,0.00,Rainwise IP-100,2013-06-02 18:51:00,
2013-06-02 14:56:00,71.0,51.0,29.65,SSW,202,3.0,12.0,50,0.00,,,0.00,Rainwise IP-100,2013-06-02 18:56:00,
2013-06-02 15:01:00,70.3,51.0,29.65,SE,135,6.0,10.0,51,0.00,,,0.00,Rainwise IP-100,2013-06-02 19:01:00,
2013-06-02 15:06:00,69.9,51.0,29.65,SSE,157,3.0,11.0,52,0.00,,,0.00,Rainwise IP-100,2013-06-02 19:06:00,
2013-06-02 15:11:00,69.2,50.0,29.64,SSE,157,6.0,15.0,50,0.00,,,0.00,Rainwise IP-100,2013-06-02 19:11:00,
2013-06-02 15:16:00,69.0,47.0,29.64,NNE,22,6.0,12.0,45,0.00,,,0.00,Rainwise IP-100,2013-06-02 19:16:00,
2013-06-02 15:21:00,68.3,41.0,29.63,ENE,67,7.0,16.0,37,0.00,,,0.00,Rainwise IP-100,2013-06-02 19:21:00,
2013-06-02 15:26:00,68.8,46.0,29.63,ENE,67,1.0,13.0,43,0.00,,,0.00,Rainwise IP-100,2013-06-02 19:26:00,
2013-06-02 15:31:00,68.6,45.0,29.63,ENE,67,1.0,11.0,43,0.00,,,0.00,Rainwise IP-100,2013-06-02 19:31:00,
2013-06-02 15:36:00,68.7,43.0,29.63,ENE,67,12.0,12.0,40,0.00,,,0.00,Rainwise IP-100,2013-06-02 19:36:00,
2013-06-02 15:41:00,68.5,42.0,29.62,NE,45,2.0,13.0,39,0.00,,,0.00,Rainwise IP-100,2013-06-02 19:41:00,
2013-06-02 15:46:00,68.6,41.0,29.62,ENE,67,5.0,14.0,37,0.00,,,0.00,Rainwise IP-100,2013-06-02 19:46:00,
2013-06-02 15:51:00,68.9,43.0,29.61,ENE,67,6.0,12.0,39,0.00,,,0.00,Rainwise IP-100,2013-06-02 19:51:00,
2013-06-02 15:56:00,69.5,43.0,29.61,NNE,22,2.0,9.0,39,0.00,,,0.00,Rainwise IP-100,2013-06-02 19:56:00,
2013-06-02 16:01:00,70.4,49.0,29.61,SSE,157,2.0,14.0,46,0.00,,,0.00,Rainwise IP-100,2013-06-02 20:01:00,
2013-06-02 16:06:00,70.3,51.0,29.61,SW,225,1.0,8.0,50,0.00,,,0.00,Rainwise IP-100,2013-06-02 20:06:00,
2013-06-02 16:11:00,69.7,50.0,29.61,WSW,247,6.0,13.0,49,0.00,,,0.00,Rainwise IP-100,2013-06-02 20:11:00,
2013-06-02 16:16:00,69.7,50.5,29.61,ENE,67,2.0,11.0,50,0.00,,,0.00,Rainwise IP-100,2013-06-02 20:16:00,
2013-06-02 16:21:00,69.8,49.0,29.61,NNE,22,3.0,12.0,48,0.00,,,0.00,Rainwise IP-100,2013-06-02 20:21:00,
2013-06-02 16:26:00,69.1,47.5,29.61,NNE,22,7.0,12.0,47,0.00,,,0.00,Rainwise IP-100,2013-06-02 20:26:00,
2013-06-02 16:31:00,68.8,43.0,29.62,NNE,22,9.0,19.0,40,0.00,,,0.00,Rainwise IP-100,2013-06-02 20:31:00,
2013-06-02 16:36:00,68.5,41.0,29.62,NE,45,2.0,13.0,37,0.00,,,0.00,Rainwise IP-100,2013-06-02 20:36:00,
2013-06-02 16:41:00,68.4,44.0,29.62,NNE,22,2.0,14.0,42,0.00,,,0.00,Rainwise IP-100,2013-06-02 20:41:00,
2013-06-02 16:46:00,68.5,43.0,29.61,ENE,67,2.0,16.0,40,0.00,,,0.00,Rainwise IP-100,2013-06-02 20:46:00,
2013-06-02 16:51:00,68.2,42.0,29.61,NE,45,1.0,12.0,39,0.00,,,0.00,Rainwise IP-100,2013-06-02 20:51:00,
2013-06-02 16:56:00,68.3,42.0,29.62,ENE,67,4.0,11.0,39,0.00,,,0.00,Rainwise IP-100,2013-06-02 20:56:00,
2013-06-02 17:01:00,67.8,37.0,29.62,ENE,67,2.0,16.0,32,0.00,,,0.00,Rainwise IP-100,2013-06-02 21:01:00,
2013-06-02 17:06:00,68.3,44.0,29.62,ENE,67,4.0,10.0,41,0.00,,,0.00,Rainwise IP-100,2013-06-02 21:06:00,
2013-06-02 17:11:00,68.4,45.0,29.62,ENE,67,5.0,9.0,43,0.00,,,0.00,Rainwise IP-100,2013-06-02 21:11:00,
2013-06-02 17:16:00,68.6,45.0,29.62,NNE,22,3.0,10.0,43,0.00,,,0.00,Rainwise IP-100,2013-06-02 21:16:00,
2013-06-02 17:21:00,68.1,42.0,29.62,ENE,67,7.0,12.0,39,0.00,,,0.00,Rainwise IP-100,2013-06-02 21:21:00,
2013-06-02 17:26:00,67.9,43.0,29.62,ENE,67,2.0,11.0,40,0.00,,,0.00,Rainwise IP-100,2013-06-02 21:26:00,
2013-06-02 17:31:00,67.6,41.0,29.62,NE,45,3.0,12.0,38,0.00,,,0.00,Rainwise IP-100,2013-06-02 21:31:00,
2013-06-02 17:36:00,67.4,42.0,29.62,ENE,67,6.0,10.0,39,0.00,,,0.00,Rainwise IP-100,2013-06-02 21:36:00,
2013-06-02 17:41:00,67.5,42.0,29.62,NNE,22,7.0,19.0,40,0.00,,,0.00,Rainwise IP-100,2013-06-02 21:41:00,
2013-06-02 17:46:00,67.7,42.0,29.61,NNE,22,2.0,12.0,40,0.00,,,0.00,Rainwise IP-100,2013-06-02 21:46:00,
2013-06-02 17:51:00,67.3,41.0,29.62,ENE,67,2.0,10.0,38,0.00,,,0.00,Rainwise IP-100,2013-06-02 21:51:00,
2013-06-02 17:56:00,67.2,40.0,29.62,ENE,67,6.0,12.0,37,0.00,,,0.00,Rainwise IP-100,2013-06-02 21:56:00,
2013-06-02 18:01:00,67.3,42.0,29.62,ENE,67,2.0,11.0,40,0.00,,,0.00,Rainwise IP-100,2013-06-02 22:01:00,
2013-06-02 18:06:00,66.4,38.0,29.62,ENE,67,4.0,12.0,35,0.00,,,0.00,Rainwise IP-100,2013-06-02 22:06:00,
2013-06-02 18:11:00,65.8,33.0,29.62,ENE,67,2.0,11.0,30,0.00,,,0.00,Rainwise IP-100,2013-06-02 22:11:00,
2013-06-02 18:16:00,65.6,32.0,29.62,ENE,67,3.0,8.0,28,0.00,,,0.00,Rainwise IP-100,2013-06-02 22:16:00,
2013-06-02 18:21:00,65.3,35.0,29.62,ENE,67,3.0,12.0,31,0.00,,,0.00,Rainwise IP-100,2013-06-02 22:21:00,
2013-06-02 18:26:00,64.9,28.0,29.62,ENE,67,6.0,15.0,24,0.00,,,0.00,Rainwise IP-100,2013-06-02 22:26:00,
2013-06-02 18:31:00,64.6,28.0,29.62,ENE,67,3.0,8.0,24,0.00,,,0.00,Rainwise IP-100,2013-06-02 22:31:00,
2013-06-02 18:36:00,64.4,18.0,29.61,ENE,67,9.0,13.0,17,0.00,,,0.00,Rainwise IP-100,2013-06-02 22:36:00,
2013-06-02 18:41:00,64.0,16.0,29.61,ENE,67,1.0,11.0,15,0.00,,,0.00,Rainwise IP-100,2013-06-02 22:41:00,
2013-06-02 18:46:00,63.4,-13.0,29.61,ENE,67,1.0,12.0,4,0.00,,,0.00,Rainwise IP-100,2013-06-02 22:46:00,
2013-06-02 18:51:00,62.8,-23.0,29.61,ENE,67,5.0,11.0,2,0.00,,,0.00,Rainwise IP-100,2013-06-02 22:51:00,
2013-06-02 18:56:00,62.4,-23.0,29.61,ENE,67,2.0,6.0,0,0.00,,,0.00,Rainwise IP-100,2013-06-02 22:56:00,
2013-06-02 19:01:00,62.3,-23.0,29.62,ENE,67,1.0,5.0,0,0.00,,,0.00,Rainwise IP-100,2013-06-02 23:01:00,
2013-06-02 19:06:00,61.9,-23.0,29.63,ENE,67,3.0,9.0,0,0.00,,,0.00,Rainwise IP-100,2013-06-02 23:06:00,
2013-06-02 19:11:00,61.9,-23.0,29.64,ENE,67,2.0,7.0,0,0.00,,,0.00,Rainwise IP-100,2013-06-02 23:11:00,
2013-06-02 19:16:00,61.9,-23.0,29.63,NNE,22,1.0,9.0,0,0.00,,,0.00,Rainwise IP-100,2013-06-02 23:16:00,
2013-06-02 19:21:00,62.0,-23.0,29.62,ENE,67,4.0,7.0,0,0.00,,,0.00,Rainwise IP-100,2013-06-02 23:21:00,
2013-06-02 19:26:00,62.4,-23.0,29.62,ENE,67,4.0,6.0,0,0.00,,,0.00,Rainwise IP-100,2013-06-02 23:26:00,
2013-06-02 19:31:00,62.4,-23.0,29.62,ENE,67,4.0,9.0,0,0.00,,,0.00,Rainwise IP-100,2013-06-02 23:31:00,
2013-06-02 19:36:00,62.4,-23.0,29.61,ENE,67,4.0,6.0,0,0.00,,,0.00,Rainwise IP-100,2013-06-02 23:36:00,
2013-06-02 19:41:00,62.4,-23.0,29.61,ENE,67,6.0,7.0,0,0.00,,,0.00,Rainwise IP-100,2013-06-02 23:41:00,
2013-06-02 19:46:00,62.4,-23.0,29.60,ENE,67,6.0,7.0,0,0.00,,,0.00,Rainwise IP-100,2013-06-02 23:46:00,
2013-06-02 19:51:00,62.3,-23.0,29.61,ENE,67,2.0,7.0,0,0.00,,,0.00,Rainwise IP-100,2013-06-02 23:51:00,
2013-06-02 19:56:00,62.2,-23.0,29.60,ENE,67,5.0,11.0,0,0.00,,,0.00,Rainwise IP-100,2013-06-02 23:56:00,
2013-06-02 20:01:00,62.1,-23.0,29.60,NE,45,2.0,11.0,0,0.00,,,0.00,Rainwise IP-100,2013-06-03 00:01:00,
2013-06-02 20:06:00,61.9,-23.0,29.60,NNE,22,1.0,9.0,0,0.00,,,0.00,Rainwise IP-100,2013-06-03 00:06:00,
2013-06-02 20:11:00,61.7,-23.0,29.61,ENE,67,2.0,10.0,0,0.00,,,0.00,Rainwise IP-100,2013-06-03 00:11:00,
2013-06-02 20:16:00,61.5,-23.0,29.60,ENE,67,2.0,10.0,0,0.00,,,0.00,Rainwise IP-100,2013-06-03 00:16:00,
2013-06-02 20:21:00,61.3,-23.0,29.60,ENE,67,1.0,12.0,0,0.00,,,0.00,Rainwise IP-100,2013-06-03 00:21:00,
2013-06-02 20:26:00,61.1,-23.0,29.60,ENE,67,2.0,12.0,0,0.00,,,0.00,Rainwise IP-100,2013-06-03 00:26:00,
2013-06-02 20:31:00,60.9,-23.0,29.60,NNE,22,6.0,11.0,0,0.00,,,0.00,Rainwise IP-100,2013-06-03 00:31:00,
2013-06-02 20:36:00,60.6,-23.0,29.60,ENE,67,2.0,12.0,0,0.00,,,0.00,Rainwise IP-100,2013-06-03 00:36:00,
2013-06-02 20:41:00,60.4,-23.0,29.60,ENE,67,2.0,15.0,0,0.00,,,0.00,Rainwise IP-100,2013-06-03 00:41:00,
2013-06-02 20:46:00,60.2,-23.0,29.60,ENE,67,4.0,11.0,0,0.00,,,0.00,Rainwise IP-100,2013-06-03 00:46:00,
2013-06-02 20:51:00,60.1,-23.0,29.60,ENE,67,2.0,11.0,0,0.00,,,0.00,Rainwise IP-100,2013-06-03 00:51:00,
2013-06-02 20:56:00,60.0,-23.0,29.60,ENE,67,2.0,11.0,0,0.00,,,0.00,Rainwise IP-100,2013-06-03 00:56:00,
2013-06-02 21:01:00,59.9,-23.0,29.60,ENE,67,2.0,17.0,0,0.00,,,0.00,Rainwise IP-100,2013-06-03 01:01:00,
2013-06-02 21:06:00,60.1,-23.0,29.60,ENE,67,5.0,11.0,0,0.00,,,0.00,Rainwise IP-100,2013-06-03 01:06:00,
2013-06-02 21:11:00,60.2,-23.0,29.60,ENE,67,2.0,9.0,0,0.00,,,0.00,Rainwise IP-100,2013-06-03 01:11:00,
2013-06-02 21:16:00,60.4,-23.0,29.60,ENE,67,4.0,14.0,0,0.00,,,0.00,Rainwise IP-100,2013-06-03 01:16:00,
2013-06-02 21:21:00,60.3,-23.0,29.60,ENE,67,2.0,11.0,0,0.00,,,0.00,Rainwise IP-100,2013-06-03 01:21:00,
2013-06-02 21:26:00,60.2,-23.0,29.60,NNE,22,2.0,9.0,0,0.00,,,0.00,Rainwise IP-100,2013-06-03 01:26:00,
2013-06-02 21:31:00,60.1,-23.0,29.60,ENE,67,4.0,10.0,0,0.00,,,0.00,Rainwise IP-100,2013-06-03 01:31:00,
2013-06-02 21:36:00,59.9,-23.0,29.61,NNE,22,2.0,7.0,0,0.00,,,0.00,Rainwise IP-100,2013-06-03 01:36:00,
2013-06-02 21:37:00,59.8,-23.0,29.61,ENE,67,1.0,7.0,0,0.00,,,0.00,Rainwise IP-100,2013-06-03 01:37:00,
2013-06-02 21:42:00,59.6,-23.0,29.61,ENE,67,1.0,9.0,0,0.00,,,0.00,Rainwise IP-100,2013-06-03 01:42:00,
2013-06-02 21:47:00,59.4,-23.0,29.60,ENE,67,1.0,11.0,0,0.00,,,0.00,Rainwise IP-100,2013-06-03 01:47:00,
2013-06-02 21:52:00,59.6,-23.0,29.61,NNE,22,4.0,7.0,0,0.00,,,0.00,Rainwise IP-100,2013-06-03 01:52:00,
2013-06-02 21:57:00,59.5,-23.0,29.61,ENE,67,2.0,9.0,0,0.00,,,0.00,Rainwise IP-100,2013-06-03 01:57:00,
2013-06-02 22:02:00,59.5,-23.0,29.61,ENE,67,2.0,9.0,0,0.00,,,0.00,Rainwise IP-100,2013-06-03 02:02:00,
2013-06-02 22:07:00,59.5,-23.0,29.61,ENE,67,2.0,9.0,0,0.00,,,0.00,Rainwise IP-100,2013-06-03 02:07:00,
2013-06-02 22:12:00,59.7,-23.0,29.61,NE,45,4.0,16.0,0,0.00,,,0.00,Rainwise IP-100,2013-06-03 02:12:00,
2013-06-02 22:17:00,59.7,-23.0,29.62,ENE,67,1.0,9.0,0,0.00,,,0.00,Rainwise IP-100,2013-06-03 02:17:00,
2013-06-02 22:22:00,59.7,-23.0,29.62,NE,45,1.0,7.0,0,0.00,,,0.00,Rainwise IP-100,2013-06-03 02:22:00,
2013-06-02 22:27:00,59.6,-23.0,29.61,NNE,22,4.0,6.0,0,0.00,,,0.00,Rainwise IP-100,2013-06-03 02:27:00,
2013-06-02 22:32:00,59.5,-23.0,29.61,ENE,67,1.0,8.0,0,0.00,,,0.00,Rainwise IP-100,2013-06-03 02:32:00,
2013-06-02 22:37:00,59.4,-23.0,29.61,ENE,67,2.0,7.0,0,0.00,,,0.00,Rainwise IP-100,2013-06-03 02:37:00,
2013-06-02 22:42:00,59.3,-23.0,29.61,ENE,67,1.0,9.0,0,0.00,,,0.00,Rainwise IP-100,2013-06-03 02:42:00,
2013-06-02 22:47:00,59.4,-23.0,29.61,ENE,67,4.0,9.0,0,0.00,,,0.00,Rainwise IP-100,2013-06-03 02:47:00,
2013-06-02 22:52:00,59.4,-23.0,29.61,ENE,67,2.0,8.0,0,0.00,,,0.00,Rainwise IP-100,2013-06-03 02:52:00,
2013-06-02 22:57:00,59.3,-23.0,29.61,ENE,67,7.0,7.0,0,0.00,,,0.00,Rainwise IP-100,2013-06-03 02:57:00,
2013-06-02 23:02:00,59.3,-23.0,29.61,ENE,67,2.0,9.0,0,0.00,,,0.00,Rainwise IP-100,2013-06-03 03:02:00,
2013-06-02 23:07:00,59.2,-23.0,29.60,ENE,67,2.0,8.0,0,0.00,,,0.00,Rainwise IP-100,2013-06-03 03:07:00,
2013-06-02 23:12:00,58.9,-23.0,29.59,ENE,67,1.0,7.0,0,0.00,,,0.00,Rainwise IP-100,2013-06-03 03:12:00,
2013-06-02 23:17:00,58.6,-23.0,29.58,ENE,67,1.0,6.0,0,0.06,,,0.01,Rainwise IP-100,2013-06-03 03:17:00,
2013-06-02 23:22:00,58.6,-23.0,29.57,ENE,67,1.0,6.0,0,0.06,,,0.01,Rainwise IP-100,2013-06-03 03:22:00,
2013-06-02 23:27:00,58.6,-23.0,29.57,ENE,67,2.0,5.0,0,0.00,,,0.01,Rainwise IP-100,2013-06-03 03:27:00,
2013-06-02 23:32:00,58.7,-23.0,29.58,ENE,67,1.0,4.0,0,0.00,,,0.01,Rainwise IP-100,2013-06-03 03:32:00,
2013-06-02 23:37:00,59.0,-23.0,29.58,ENE,67,1.0,6.0,0,0.00,,,0.01,Rainwise IP-100,2013-06-03 03:37:00,
2013-06-02 23:42:00,58.9,-23.0,29.58,ENE,67,4.0,5.0,0,0.00,,,0.01,Rainwise IP-100,2013-06-03 03:42:00,
2013-06-02 23:47:00,58.9,-23.0,29.58,ENE,67,2.0,6.0,0,0.00,,,0.01,Rainwise IP-100,2013-06-03 03:47:00,
2013-06-02 23:52:00,58.6,-23.0,29.58,ENE,67,6.0,10.0,0,0.00,,,0.01,Rainwise IP-100,2013-06-03 03:52:00,
2013-06-02 23:57:00,58.2,-40.0,29.58,ENE,67,4.0,12.0,0,0.06,,,0.02,Rainwise IP-100,2013-06-03 03:57:00,